Location: Cuiry
(49.3858°N, 3.7708°E)
Time: 23:10:19
(UTC+00:00)

Cosmos 2360 - Pass Details

Date: 12 January 2026
Orbit: 847 x 855 km, 70.7° (Epoch: 9 February)

Event Time Altitude Azimuth Distance (km) Brightness Sun altitude
Rises 19:15:58 0° 329° (NNW) 3,435 7.8 -29.5°
Reaches altitude 10° 19:18:26 10° 328° (NNW) 2,494 7.0 -29.9°
Enters shadow 19:23:39 68° 282° (WNW) 920 4.4 -30.7°
